Regional Weather Roundup
Issued by NWS New Orleans/Baton Rouge, LA

Home | Current Version | Previous Version | Graphics & Text | Print | Product List | Glossary On
Versions: 1 2 3 4 5 6 7 8 9 10 11 12 13 14 15 16 17 18 19 20 21 22 23 24 25 26 27 28 29 30 31 32 33 34 35 36 37 38 39 40 41 42 43 44 45 46 47 48 49 50
866
ASUS44 KLIX 262101
RWRLIX
NEW ORLEANS REGIONAL WEATHER ROUNDUP
NATIONAL WEATHER SERVICE NEW ORLEANS LA
400 PM CDT TUE AUG 26 2014

NOTE: "FAIR" INDICATES FEW OR NO CLOUDS BELOW 12,000 FEET WITH NO
      SIGNIFICANT WEATHER AND/OR OBSTRUCTIONS TO VISIBILITY.
      SKY/WX - SKY CONDITION AND SIGNIFICANT WEATHER.
      TMP - AIR TEMPERATURE.     DP    - DEWPOINT TEMPERATURE.
      RH  - RELATIVE HUMIDITY.   PRES  - PRESSURE.
      HI  - HEAT INDEX.          WCI   - WIND CHILL INDEX.

*  THESE STATIONS ARE NOT NWS OR FAA STATIONS AND ARE NOT UNDER
   NWS QUALITY CONTROL.

LAZ038-040-048-061>063-065>067-069-262200-
SOUTHEAST LOUISIANA

CITY           SKY/WX    TMP DP  RH WIND       PRES   REMARKS
N.O. AUDUBON     N/A     86 N/A N/A MISG        N/A
N.O. INTL ARPT CLOUDY    87  68  52 E12       29.96F
N.O. LAKEFRONT CLOUDY    86  71  60 E14       29.97F
N.O. DOWNTOWN*   N/A     86  68  54 E8        29.97F
SLIDELL        PTSUNNY   91  66  43 NE9       29.96F
BATON ROUGE    PTSUNNY   89  69  51 NE6       29.96F
BOOTHVILLE     CLOUDY    85  74  69 NE13      29.96F
BELLE CHASSE   CLOUDY    86  69  56 E10       29.96F
BOGALUSA*        N/A     91  62  37 N5        29.99S
GALLIANO*      NOT AVBL
NEW ROADS*       N/A     88  69  52 NE9       29.97F
GONZALES*        N/A     86  74  66 E5        29.96F
HAMMOND*       NOT AVBL
HOUMA*         MOSUNNY   82  73  74 N5        29.96F
PORT FOURCHON* CLEAR     84  75  74 NE14G21   29.96F

$$

MSZ070-080>082-262200-
SOUTHERN MISSISSIPPI

CITY           SKY/WX    TMP DP  RH WIND       PRES   REMARKS
MCCOMB         MOSUNNY   88  62  41 E6        30.00F
GULFPORT       MOSUNNY   87  72  60 SE10      29.96F
BILOXI         MOSUNNY   89  71  54 S10       29.97F HX  96
PASCAGOULA     MOSUNNY   91  67  44 SE7       29.96F
STENNIS ARPT*  MOSUNNY  N/A N/A N/A SE6       29.96F

$$

COASTAL OBSERVATIONS
LAKE AND NEARSHORE STATIONS

STATION/POSITION TIME  TEMP    WIND        PRES    WAVE
                       AIR SEA DIR/SP/G            HT/PER
                 (UTC) (F)     (DEG/KT/KT) (MB)    (FT/S)
PASCAGOULA       2000   88     140/  9/ 16 1014.4
WAVELAND YACHT   2000   84     140/ 10/ 12 1014.3
GRAND ISLE       2000   84 86   70/ 14/ 19 1014.9
SOUTHWEST PASS   2000   87 88   70/ 15/ 18 1014.3
NEW CANAL        2000   87 85   80/  4/ 10 1015.2
SHELL BEACH      2000   84 82   90/ 15/ 18 1014.7

OFFSHORE STATIONS

STATION/POSITION TIME  TEMP    WIND        PRES    WAVE
                       AIR SEA DIR/SP/G            HT/PER
                 (UTC) (F)     (DEG/KT/KT) (MB)    (FT/S)
64 S DAUPHIN ISL 2021   84 86   60/ 14/ 17 1014.1

$$




USA.gov is the U.S. government's official web portal to all federal, state and local government web resources and services.